User: anonymous   Login
Location: Caltech
(34.1382°N, 118.1253°W)
Time: 07:50:48
(UTC-08:00)
Language:

IDEFIX/ARIANE 42P - Orbit

View from above orbital plane
View from above orbital plane
View from above satellite
View from above satellite

Ground track
Ground track

The orbit data is extracted from the following two-line orbital elements,

1 27422U 02021B   17057.12844486 -.00000033  00000-0  27731-5 0  9991
2 27422  98.2289  63.5501 0011838 200.6718 159.3987 14.29251621770810
Epoch (UTC): 26 February 2017 03:04:57
Eccentricity: 0.0011838
inclination: 98.2289°
perigee height: 786 km
apogee height: 803 km
right ascension of ascending node: 63.5501°
argument of perigee: 200.6718°
revolutions per day: 14.29251621
mean anomaly at epoch: 159.3987°
orbit number at epoch: 77081

The dashed part of the orbit path shows where the satellite is in the earth's shadow,  

DLR